www.pogodaiklimat.ru

Погода и климат >> Архив погоды >> Аргентина >> Сан-Рамон-де-ла-Нуэва-Оран


ПОГОДА в Сан-Рамон-де-ла-Нуэва-Оране

  • Прогноз погоды в Сан-Рамон-де-ла-Нуэва-Оране
  • Монитор погоды в Сан-Рамон-де-ла-Нуэва-Оране

АРХИВ ПОГОДЫ в Сан-Рамон-де-ла-Нуэва-Оране

Время (UTC), дата Ветер
(напр.,м/с)
 
Видим.   Явления Облачность Т
(С)
Тd
(С)
f
(%)
Тe
(С)
Тes
(С)
Комфортность P
(гПа)
Po
(гПа)
Тmin
(С)
Tmax
(С)
R
(мм)
R24
(мм)
S
(см)
09 11.06 В 3 100 м туман ?/? +13.5 +13.0 97 +12 +12 1010.9 969.8
12 11.06 штиль 0 600 м туман 5/5 540 м
[St]
+13.2 +12.7 97 +13 +13 1012.9 971.2 +12.9 +17.2
15 11.06 С 3 12 км {туман} 9/3 600 м
[Sc Ac und]
+19.6 +16.7 83 +22 +24 комфорт 1011.6 970.2
18 11.06 штиль 0 12 км {туман} 8/1 600 м
[Cu hum Cs]
+23.8 +17.3 67 +28 +36 душно 1007.9 967.0
21 11.06 штиль 0 12 км 9/6 600 м
[Sc Cs]
+22.8 +16.7 68 +27 +28 душно 1007.2 966.2
00 12.06 штиль 0 10 км 9/9 600 м
[Sc]
+20.4 +17.8 85 +24 +24 комфорт 1009.1 967.8 +13.2 +25.7
03 12.06 штиль 0 12 км 10/10 600 м
[Sc]
+19.6 +16.8 84 +22 +22 комфорт 1008.1 967.2
06 12.06 З 3 10 км 10/10 540 м
[Sc]
+19.0 +17.4 90 +21 +21 комфорт 1006.2 965.6
09 12.06 Ю 1 10 км 10/10 540 м
[Sc]
+17.0 +16.0 94 +18 +18 1005.2 964.5
12 12.06 штиль 0 12 км 9/9 600 м
[Sc]
+16.8 +14.4 86 +17 +17 1006.3 965.4 +16.0 +20.4
15 12.06 Ю 1 12 км 9/9 750 м
[Sc]
+21.6 +16.4 72 +25 +26 комфорт 1005.5 964.9
18 12.06 ЮВ 1 12 км 9/4 750 м
[Sc Cs]
+24.4 +17.1 64 +28 +33 душно 1003.3 962.9
21 12.06 ЮВ 1 12 км 9/1 750 м
[Sc Cs]
+24.6 +18.0 67 +29 +29 душно 1004.3 963.7
00 13.06 штиль 0 12 км 6/1 750 м
[Sc Cs]
+18.8 +17.5 92 +20 +20 1006.7 965.6 +16.8 +26.2
03 13.06 штиль 0 12 км 9/9 750 м
[Sc]
+19.6 +17.8 89 +22 +22 комфорт 1007.0 966.2
06 13.06 штиль 0 12 км 9/9 750 м
[Sc]
+19.6 +18.0 90 +22 +22 комфорт 1006.5 966.0
09 13.06 штиль 0 12 км 9/6 750 м
[Sc Cs]
+18.4 +17.1 92 +19 +19 1006.1 965.6
12 13.06 штиль 0 10 км 8/4 600 м
[Sc Cs]
+18.1 +16.6 91 +18 +19 1007.8 966.8 +17.0 +19.6
15 13.06 З 3 10 км 9/5 600 м
[Cu Sc Cs]
+23.1 +17.0 69 +28 +32 душно 1007.6 967.0
18 13.06 штиль 0 10 км 10/10 600 м
[Cu Sc]
+25.2 +18.3 66 +30 +30 душно 1004.1 963.8
21 13.06 штиль 0 4000 м дым 10/10 600 м
[Sc]
+24.2 +20.1 78 +30 +30 очень
душно
1004.4 963.8
00 14.06 штиль 0 4000 м дым 9/9 600 м
[Sc]
+22.2 +19.7 86 +28 +28 душно 1005.8 965.0 +18.1 +25.5
03 14.06 штиль 0 10 км 9/9 600 м
[Sc]
+20.5 +19.4 93 +24 +24 комфорт 1007.0 966.5
06 14.06 штиль 0 10 км 10/10 500 м
[Sc]
+20.9 +17.0 78 +24 +24 комфорт 1007.4 967.0
09 14.06 штиль 0 10 км 10/10 500 м
[Sc]
+19.8 +18.7 93 +22 +22 комфорт 1008.9 968.2
12 14.06 Ю 1 12 км 10/10 750 м
[Sc]
+20.2 +18.6 91 +25 +25 комфорт 1011.4 970.6 +19.0 +22.2
15 14.06 штиль 0 12 км 10/10 600 м
[Cu Sc]
+22.8 +19.2 80 +29 +29 очень
душно
1012.3 971.4
18 14.06 ЮВ 3 12 км 10/8 600 м
[Cu Sc Ac As]
+24.7 +18.1 67 +29 +30 душно 1009.3 968.8
21 14.06 ЮВ 1 12 км 10/10 750 м
[Sc]
+22.3 +18.0 77 +27 +27 душно 1009.2 968.5
00 15.06 ЮВ 4 12 км 10/8 750 м
[Sc Ac As]
+20.2 +17.8 86 +23 +23 комфорт 1011.3 970.4 +20.2 +25.1
03 15.06 штиль 0 12 км 10/8 750 м
[Sc Ac As]
+19.0 +17.4 90 +20 +20 1011.4 970.6
06 15.06 В 3 12 км 10/8 600 м
[Sc Ac As]
+18.3 +17.0 92 +19 +19 1010.3 969.6
09 15.06 Ю 1 4000 м слаб. морось 10/10 210 м
[Frnb]
+16.8 +16.1 96 +18 +18 1010.1 969.0
12 15.06 ЮВ 3 4000 м слаб. морось 10/10 210 м
[Frnb]
+16.0 +15.7 98 +16 +16 1012.6 971.3 +16.0 +20.2 0.7
15 15.06 Ю 3 4000 м слаб. морось 10/10 210 м
[Frnb]
+16.1 +15.6 97 +16 +16 1014.2 972.8
18 15.06 Ю 3 8000 м в посл. час морось 10/10 240 м
[Frnb]
+15.8 +15.1 96 +15 +15 1012.1 970.6 2
21 15.06 Ю 3 4000 м слаб. морось 10/10 210 м
[Frnb]
+15.3 +15.0 98 +15 +15 1014.0 972.4
00 16.06 Ю 3 8000 м в посл. час морось 10/10 210 м
[Frnb]
+14.1 +12.7 91 +13 +13 1017.2 975.3 +14.1 +16.1 0.5
03 16.06 Ю 3 10 км осадки на расстоянии 10/6 540 м
[Sc Ac As]
+13.3 +11.8 91 +12 +12 1019.1 977.0
06 16.06 штиль 0 4000 м слаб. морось 10/10 240 м
[Frnb]
+13.0 +12.3 96 +12 +12 1019.7 977.6 0.1
09 16.06 штиль 0 4000 м слаб. морось 10/10 240 м
[Frnb]
+11.0 +10.2 95 +10 +10 1021.1 978.8
12 16.06 ЮВ 3 1000 м слаб. морось 10/10 210 м
[Frnb]
+10.4 +9.8 96 +8 +8 1023.8 981.2 +10.4 +14.1 3
15 16.06 ЮВ 1 5000 м осадки на расстоянии {морось} 10/10 210 м
[Frnb]
+12.0 +8.2 78 +12 +12 1024.4 981.8
18 16.06 В 3 12 км {морось} 10/10 300 м
[Cu Sc]
+12.6 +8.2 75 +11 +11 1021.1 978.6 0.2
21 16.06 СЗ 4 12 км 10/10 300 м
[Cu Sc]
+12.0 +9.2 83 +10 +10 1020.9 978.4
00 17.06 СЗ 3 6000 м осадки на расстоянии 10/10 240 м
[Frnb]
+11.8 +8.2 79 +10 +10 1023.4 980.6 +10.4 +13.0
03 17.06 СЗ 1 5000 м слаб. морось 10/10 210 м
[Frnb]
+10.6 +9.4 92 +10 +10 1023.7 981.0
06 17.06 ЮВ 1 6000 м осадки на расстоянии {морось} 10/10 240 м
[Frnb]
+10.4 +9.6 95 +10 +10 1022.8 980.2 0.0
09 17.06 штиль 0 10 км 10/10 600 м
[Sc]
+10.4 +9.2 92 +10 +10 1021.6 979.0
12 17.06 СЗ 3 10 км 10/10 600 м
[Sc]
+10.2 +8.2 87 +8 +8 1022.3 979.6 +10.0 +11.8 0.2
15 17.06 штиль 0 10 км 10/4 600 м
[Sc Ac As]
+12.4 +7.5 72 +12 +14 1020.9 978.4
18 17.06 ЮВ 1 10 км 10/8 600 м
[Sc Ac As]
+12.5 +7.4 71 +13 +13 1016.3 973.8
21 17.06 Ю 1 10 км 10/8 600 м
[Sc Ac As]
+12.2 +7.5 73 +12 +12 1014.5 972.2
00 18.06 СВ 3 10 км 10/10 600 м
[Sc]
+11.0 +8.4 84 +9 +9 1014.6 972.2 +10.2 +13.0
03 18.06 штиль 0 10 км 10/10 600 м
[Sc]
+10.9 +8.7 86 +10 +10 1015.0 972.6
06 18.06 штиль 0 10 км 10/10 600 м
[Sc]
+10.3 +8.9 91 +10 +10 1013.8 971.4

 

Местоположение метеостанции Сан-Рамон-де-ла-Нуэва-Оран (Аргентина): широта -23.15 долгота -64.31 высота над уровнем моря 357 м.

В архиве по умолчанию представлена погода в Сан-Рамон-де-ла-Нуэва-Оране за последнюю неделю. Архивные данные за месяц целиком и за предыдущие месяцы, начиная с января 2011 года, Вы можете получить, выбрав интересующий диапазон дат из раскрывающегося списка и нажав кнопку "Ввод!".


*Определитесь, кто Вы:
робот инопланетянин человек

Внимание! Время в таблицах - всемирное. Для получения местного времени необходимо прибавить поправку, которая равна -3 ч.

Смотрите также архив погоды в соседних городах и на ближайших метеорологических станциях:

Погода в Бермехо (Боливия) (43 км)
Погода в Тартагале (Аргентина) (79 км)
Погода в Якуибе (Боливия) (150 км)
Погода в Сан-Сальвадор-де-Жужуе (Аргентина) (158 км)
Погода в Ла-Кьяке (Аргентина) (177 км)
Погода в Тарихе (Боливия) (182 км)
Погода в Сальте (Аргентина) (223 км)
Погода в Вилья-Монтесе (Боливия) (229 км)
Погода в Пратс-Гиле (Парагвай) (292 км)
Погода в Камири (Боливия) (360 км)

Пояснения к столбцам:

Ветер - указаны скорость ветра в м/с - средняя за 10 мин, порывы в срок и между сроками (в фигурных скобках) и направление, откуда дует ветер: С - северный, СВ - северо-восточный, В - восточный, ЮВ - юго-восточный, Ю - южный, ЮЗ - юго-западный, З - западный, СЗ - северо-западный.
Видимость - горизонтальная дальность видимости в метрах или километрах. При видимости от 1 до 10 км при отсутствии осадков обычно наблюдается дымка, при ухудшении видимости до 1 км и менее - туман. В сухую погоду видимость может ухудшаться дымом, пылью или мглою.
Явления - указаны атмосферные явления, наблюдавшиеся в срок или в последний час перед сроком; фигурными скобками обозначены явления, наблюдавшиеся между сроками (за 1-3 часа до срока); квадратными скобками обозначены град или гололедные отложения с указанием их диаметра в мм.
Облачность - указаны через наклонную черту общая и нижняя облачность в баллах и высота нижней границы облаков в метрах; квадратными скобками обозначены формы облаков: Ci - перистые, Cs - перисто-слоистые, Cc - перисто-кучевые, Ac - высококучевые, As - высокослоистые, Sc - слоисто-кучевые, Ns - слоисто-дождевые, Cu - кучевые, Cb - кучево-дождевые. Подробнее классификацию облаков см. в Атласе облаков (PDF).
T - Температура воздуха - температура, измеренная на высоте 2 м над землей.
Td - Температура точки росы - температура, при понижении до которой содержащийся в воздухе водяной пар достигнет насыщения.
f - Относительная влажность воздуха - влажноcть воздуха, измеренная на высоте 2 м над землей.
Te - Эффективная температура - температура, которую ощущает одетый по сезону человек в тени. Характеристика душности погоды. При расчете учитывается влияние влажности воздуха и скорости ветра на теплоощущения человека.
Tes - Эффективная температура на солнце - температура, которую ощущает человек, с поправкой на солнечный нагрев. Характеристика знойности погоды. Зависит от высоты солнца над горизонтом, облачности и скорости ветра. Ночью, в пасмурную погоду, а также при ветре 12 м/с и более поправка равна нулю.
P - Атмосферное давление - приведенное к уровню моря атмосферное давление.
Po - Атмосферное давление - измеренное на уровне метеостанции атмосферное давление.
Tmin - Минимальная температура - минимум температуры воздуха на высоте 2 м над землей.
Tmax - Максимальная температура - максимум температуры воздуха на высоте 2 м над землей.
R - Количество осадков - Количество выпавших осадков за период времени, мм. При наведении курсора мыши на число - период времени, за который выпало указанное количество осадков.
R24 - Количество осадков - Количество выпавших осадков за 24 часа, мм.
S - Снежный покров - Высота снежного покрова, см. При наведении курсора мыши на число - состояние снежного покрова и степень покрытия местности в баллах.